THOR ABLESTAR R/B, 893

Orbit data source: Space-Track

THOR ABLESTAR R/B, 893 is space debris in LEO originally from a launch on Tue, 06 Oct 1964 UTC launched from the Air Force Western Test Range (AFWTR). Debris objects in space refer to the collection of defunct objects orbiting the Earth. Examples of debris include non-operational satellites, rocket bodies, and fragments generated from explosions, collisions, or faulty payload assembly.

Loading next visibility...
Identifier
893, 1964-063A
Orbit
LEO
Country
Flag of USUS
Related business
Manufacturer
Aerojet
Mission
Spacecraft
Bus & Motor
ABLESTAR, Unknown motor
Mass
~600 kg wet, 600 kg dry
Launch date (UTC)
1964-10-06 (61 years ago)
Launch vehicle
Unknown
Launch site
Air Force Western Test Range (AFWTR)
Object type
Payload
Rocket body
Debris
Shape & HBR
Cyl, 2.4 m
Radar Cross Section
6.048 m², Large (>1 m²)

Expand to show TLE details & history
Last TLE update: 12 hours ago

TLE from 12 hours ago
0 THOR ABLESTAR R/B
1 00893U 64063A   25258.48790341  .00000055  00000-0  65655-4 0  9998
2 00893  90.2222  68.7987 0024044 308.4876 104.8313 13.56295134 14749
Epoch: 2025-09-15T11:42Z
TLE epoch observation values (Epoch: 2025-09-15T11:42:34.854Z)
Latitude
53.67886°
Longitude
-101.83907°
Altitude
1,062.679 km
Speed
7.323 km/s
True Right ascension
04h 33m 59s
True Declination
53° 31' 17"
Sunlit
Object was in daylight at epoch
Visualization orbit readout
Latitude
Unknown
Longitude
Unknown
Altitude
Unknown
Speed
Unknown
Apparent Right ascension
Unknown
Apparent Declination
Unknown
Sunlit
N/A
Visualization observer readout
Local Sidereal Time
15:55:53
Azimuth
Unknown
Elevation
Unknown
Doppler factor
Unknown
Orbital elements
Apogee altitude
1,064.079 km
Perigee altitude
1,028.377 km
Semi-major axis
7,424.365 km
Eccentricity
0.0024
Inclination
90.2222°
RAAN
68.7987°
Arg. of periapsis
308.4876°
True anomaly
105.09744°
Mean anomaly
104.8313°
Eccentric anomaly
104.96439°
Mean motion
3.39277 °/min
Orbital period
106.11 mins
BSTAR
0.000065655
Loading maneuver chart data...
Computing Atmospheric mass density...
Loading historical data...
Loading historical data...
Loading historical data...
Loading historical data...
Loading historical data...
Loading historical data...
Loading historical data...
Other satellites on launch #63 in the year 1964 (1964-10-06 UTC)

Documentation

Showing up to 5 results
|